Home > Weather > Cuddalore > Past weeks

Flag for India Weather for the Past 2 Weeks in Cuddalore, Tamil Nadu, India

Now
82 °F

Passing clouds.


Feels Like: 92 °F
Forecast: 82 / 99 °F
Wind: 2 mph from Southwest

Location: Madras / Minambakkam

Current Time: Apr 30, 2016 at 5:57:49 AM

Latest Report: Apr 30, 2016 at 5:00 AM


Visibility: 4 mi

Pressure: 29.74 "Hg

Humidity: 89%

Dew Point: 79 °F

Location of CuddaloreLocation

Historic Weather in Cuddalore — Graph

°F

Cuddalore Temperature Yesterday

Maximum temperature yesterday: 99 °F (at 12:00 PM)
Minimum temperature yesterday: 82 °F (at 5:30 AM)
Average temperature yesterday: 90 °F

High & Low Weather Summary for the Past Weeks

 TemperatureHumidityPressure
High106 °F (Apr 22, 2:00 PM)94% (Apr 28, 6:00 AM)29.86 "Hg (Apr 28, 6:00 AM)
Low81 °F (Apr 20, 5:00 AM)30% (Apr 22, 2:30 PM)29.56 "Hg (Apr 23, 4:00 PM)
Average90 °F70%29.73 "Hg
* Reported Apr 15 4:30 AM — Apr 30 4:30 AM, Cuddalore, Weather by CustomWeather, © 2016

Note: Actual official high and low records may vary slightly from our data, if they occured in-between our weather recording intervals... More about our weather records

Advertising

Cuddalore Weather History for the Previous 24 Hours

Scroll right to see more
 ConditionsComfort  
Time TempWeatherWind HumidityBarometerVisibility
4:30 AM
Sat, Apr 30
82 °FPassing clouds.5 mph89%29.74 "Hg4 mi
4:00 AM82 °FPassing clouds.3 mph89%29.74 "Hg4 mi
3:30 AM82 °FPassing clouds.No wind89%29.71 "Hg4 mi
3:00 AM82 °FPassing clouds.5 mph94%29.74 "Hg4 mi
2:30 AM84 °FPassing clouds.5 mph84%29.74 "Hg4 mi
2:00 AM84 °FClear.3 mph89%29.74 "Hg4 mi
1:30 AM84 °FClear.2 mph89%29.74 "Hg4 mi
1:00 AM86 °FClear.2 mph84%29.74 "Hg4 mi
12:30 AM86 °FClear.2 mph84%29.74 "Hg4 mi
12:00 AM86 °FClear.3 mph84%29.77 "Hg4 mi
11:30 PM
Fri, Apr 29
86 °FClear.5 mph84%29.77 "Hg4 mi
11:00 PM86 °FClear.6 mph84%29.77 "Hg4 mi
10:30 PM86 °FClear.6 mph79%29.77 "Hg4 mi
10:00 PM86 °FClear.6 mph79%29.77 "Hg4 mi
9:30 PM88 °FClear.5 mph75%29.77 "Hg4 mi
9:00 PM88 °FClear.7 mph70%29.77 "Hg4 mi
8:30 PM88 °FClear.6 mph70%29.74 "Hg4 mi
8:00 PM88 °FClear.10 mph70%29.74 "Hg4 mi
7:30 PM88 °FClear.8 mph70%29.74 "Hg4 mi
7:00 PM90 °FClear.12 mph67%29.74 "Hg4 mi
6:30 PM90 °FClear.9 mph67%29.71 "Hg4 mi
6:00 PM91 °FClear.9 mph63%29.71 "Hg5 mi
5:30 PM93 °FClear.12 mph59%29.71 "Hg5 mi
5:00 PM95 °FPassing clouds.12 mph56%29.71 "Hg5 mi
4:30 PM95 °FPassing clouds.12 mph56%29.71 "Hg5 mi
4:00 PM97 °FPassing clouds.14 mph53%29.68 "Hg5 mi
3:30 PM97 °FPassing clouds.14 mph53%29.71 "Hg5 mi
3:00 PM97 °FPassing clouds.12 mph53%29.71 "Hg5 mi
2:30 PM97 °FPassing clouds.12 mph53%29.71 "Hg5 mi
2:00 PM97 °FPassing clouds.12 mph53%29.71 "Hg5 mi
1:30 PM97 °FPassing clouds.12 mph53%29.74 "Hg5 mi
1:00 PM99 °FPassing clouds.10 mph50%29.74 "Hg5 mi
12:30 PM99 °FPassing clouds.8 mph50%29.74 "Hg5 mi
12:00 PM99 °FPassing clouds.8 mph42%29.77 "Hg5 mi
11:30 AM97 °FPassing clouds.5 mph50%29.77 "Hg5 mi
11:00 AM97 °FPassing clouds.8 mph50%29.80 "Hg4 mi
10:30 AM95 °FPassing clouds.8 mph53%29.80 "Hg4 mi
10:00 AM93 °FPassing clouds.8 mph59%29.80 "Hg4 mi
9:30 AM91 °FScattered clouds.9 mph63%29.83 "Hg4 mi
8:30 AM90 °FScattered clouds.5 mph71%29.83 "Hg4 mi
8:00 AM88 °FScattered clouds.6 mph75%29.80 "Hg4 mi
7:30 AM86 °FPassing clouds.6 mph79%29.80 "Hg4 mi
6:30 AM82 °FScattered clouds.9 mph89%29.77 "Hg4 mi
6:00 AM82 °FPassing clouds.9 mph89%29.77 "Hg4 mi
5:30 AM82 °FPassing clouds.9 mph89%29.74 "Hg4 mi
Weather by CustomWeather, © 2016

See weather overviewHow to use our weather pages